COSMOS 1275 DEB, 39961

Orbit data source: Space-Track

COSMOS 1275 DEB, 39961 is space debris in LEO originally from a launch on Thu, 04 Jun 1981 UTC launched from the Plesetsk Missile And Space Complex (PKMTR). Debris objects in space refer to the collection of defunct objects orbiting the Earth. Examples of debris include non-operational satellites, rocket bodies, and fragments generated from explosions, collisions, or faulty payload assembly.

Loading next visibility...
Identifier
39961, 1981-053NX
Orbit
LEO
Country
Flag of CISCIS
Related business
Manufacturer
Unknown
Mission
Spacecraft
Bus & Motor
Unknown
Mass
Unknown
Launch date (UTC)
1981-06-04 (45 years ago)
Launch vehicle
Unknown
Launch site
Plesetsk Missile And Space Complex (PKMTR)
Object type
Payload
Rocket body
Debris
Shape & HBR
Unknown shape, 0.1 m
Radar Cross Section
Small (<0.1 m²)

Expand to show TLE details & history
Last TLE update: 5 days ago

TLE from 5 days ago
0 COSMOS 1275 DEB
1 39961U 81053NX  25338.37669073  .00002772  00000-0  20054-2 0  9998
2 39961  82.7678   6.5797 0055824 137.2976 282.5146 13.95478378583314
Epoch: 2025-12-04T09:02Z
TLE epoch observation values (Epoch: 2025-12-04T09:02:26.079Z)
Latitude
58.52689°
Longitude
169.43763°
Altitude
910.784 km
Speed
7.407 km/s
True Right ascension
01h 13m 55s
True Declination
58° 22' 36"
Sunlit
Object was in full shadow at epoch
Visualization orbit readout
Latitude
Unknown
Longitude
Unknown
Altitude
Unknown
Speed
Unknown
Apparent Right ascension
Unknown
Apparent Declination
Unknown
Sunlit
N/A
Visualization observer readout
Local Sidereal Time
07:25:09
Azimuth
Unknown
Elevation
Unknown
Doppler factor
Unknown
Orbital elements
Apogee altitude
947.289 km
Perigee altitude
865.956 km
Semi-major axis
7,284.759 km
Eccentricity
0.00558
Inclination
82.7678°
RAAN
6.5797°
Arg. of periapsis
137.2976°
True anomaly
281.88917°
Mean anomaly
282.5146°
Eccentric anomaly
282.20198°
Mean motion
3.49076 °/min
Orbital period
103.13 mins
BSTAR
0.0020054
Loading maneuver chart data...
Computing Atmospheric mass density...
Loading historical data...
Loading historical data...
Loading historical data...
Loading historical data...
Loading historical data...
Loading historical data...
Loading historical data...

Documentation

Showing up to 5 results
|